iso_date,epoch_date,Year,Hour,Min,DOY,POS_DOY,Lat,Lon,BP,Ts,Ta,has_bp,has_ts,has_ta,BuoyID,Buoy_Type,Buoy_Owner,Logistics,Hemisphere
2021-08-28T22:19:03Z,1630189143,2021,22,19,240.9299,240.9299,56.133,-165.9628,1021.4,19.1,-999.0,yes,yes,no,300234068761770,SVP-B,ECCC,RCAF,North
2021-08-28T22:59:57Z,1630191597,2021,23,0,240.9583,240.9583,56.2638,-166.0338,1021.7,16.0,-999.0,yes,yes,no,300234068761770,SVP-B,ECCC,RCAF,North
2021-08-29T00:00:00Z,1630195200,2021,0,0,241.0,241.0,56.5106,-166.1694,1021.4,14.8,-999.0,yes,yes,no,300234068761770,SVP-B,ECCC,RCAF,North
2021-08-29T01:00:02Z,1630198803,2021,1,0,241.0417,241.0417,56.7502,-166.2998,1021.2,14.9,-999.0,yes,yes,no,300234068761770,SVP-B,ECCC,RCAF,North
2021-08-29T01:59:57Z,1630202397,2021,2,0,241.0833,241.0833,56.9932,-166.4342,1020.8,14.4,-999.0,yes,yes,no,300234068761770,SVP-B,ECCC,RCAF,North
2021-08-29T03:00:00Z,1630206000,2021,3,0,241.125,241.125,57.236,-166.569,1020.7,13.7,-999.0,yes,yes,no,300234068761770,SVP-B,ECCC,RCAF,North
2021-08-29T04:00:02Z,1630209603,2021,4,0,241.1667,241.1667,57.489,-166.7106,1020.6,13.3,-999.0,yes,yes,no,300234068761770,SVP-B,ECCC,RCAF,North
2021-08-29T04:59:57Z,1630213197,2021,5,0,241.2083,241.2083,57.7262,-166.8442,1020.4,12.9,-999.0,yes,yes,no,300234068761770,SVP-B,ECCC,RCAF,North
2021-08-29T06:00:00Z,1630216800,2021,6,0,241.25,241.25,57.968,-166.9814,1020.4,12.2,-999.0,yes,yes,no,300234068761770,SVP-B,ECCC,RCAF,North
2021-08-29T07:00:02Z,1630220403,2021,7,0,241.2917,241.2917,58.2134,-167.1212,1020.5,11.9,-999.0,yes,yes,no,300234068761770,SVP-B,ECCC,RCAF,North
2021-08-29T07:59:57Z,1630223997,2021,8,0,241.3333,241.3333,58.4622,-167.2642,1020.4,11.7,-999.0,yes,yes,no,300234068761770,SVP-B,ECCC,RCAF,North
2021-08-29T09:00:00Z,1630227600,2021,9,0,241.375,241.375,58.7144,-167.4104,1020.1,11.1,-999.0,yes,yes,no,300234068761770,SVP-B,ECCC,RCAF,North
2021-08-29T10:00:02Z,1630231203,2021,10,0,241.4167,241.4167,58.9596,-167.566,1019.8,10.7,-999.0,yes,yes,no,300234068761770,SVP-B,ECCC,RCAF,North
2021-08-29T10:59:57Z,1630234797,2021,11,0,241.4583,241.4583,59.2036,-167.7242,1019.6,10.6,-999.0,yes,yes,no,300234068761770,SVP-B,ECCC,RCAF,North
2021-08-29T12:00:00Z,1630238400,2021,12,0,241.5,241.5,59.4468,-167.8828,1019.5,10.5,-999.0,yes,yes,no,300234068761770,SVP-B,ECCC,RCAF,North
2021-08-29T13:00:02Z,1630242003,2021,13,0,241.5417,241.5417,59.6842,-168.0386,1019.1,10.4,-999.0,yes,yes,no,300234068761770,SVP-B,ECCC,RCAF,North
2021-08-29T13:59:57Z,1630245597,2021,14,0,241.5833,241.5833,59.9164,-168.1928,1018.8,10.2,-999.0,yes,yes,no,300234068761770,SVP-B,ECCC,RCAF,North
2021-08-29T15:00:00Z,1630249200,2021,15,0,241.625,241.625,60.1534,-168.3508,1018.5,10.1,-999.0,yes,yes,no,300234068761770,SVP-B,ECCC,RCAF,North
2021-08-29T16:00:02Z,1630252803,2021,16,0,241.6667,241.6667,60.3976,-168.2516,1018.3,10.0,-999.0,yes,yes,no,300234068761770,SVP-B,ECCC,RCAF,North
2021-08-29T16:59:57Z,1630256397,2021,17,0,241.7083,241.7083,60.6456,-168.1154,1018.3,10.4,-999.0,yes,yes,no,300234068761770,SVP-B,ECCC,RCAF,North
2021-08-29T19:00:02Z,1630263603,2021,19,0,241.7917,241.7917,61.1512,-167.834,1017.9,10.8,-999.0,yes,yes,no,300234068761770,SVP-B,ECCC,RCAF,North
2021-08-29T19:59:57Z,1630267197,2021,20,0,241.8333,241.8333,61.407,-167.6898,1017.8,11.1,-999.0,yes,yes,no,300234068761770,SVP-B,ECCC,RCAF,North
2021-08-29T21:00:00Z,1630270800,2021,21,0,241.875,241.875,61.6666,-167.5434,1017.6,11.2,-999.0,yes,yes,no,300234068761770,SVP-B,ECCC,RCAF,North
2021-08-29T22:00:02Z,1630274403,2021,22,0,241.9167,241.9167,61.9032,-167.4068,1017.4,11.5,-999.0,yes,yes,no,300234068761770,SVP-B,ECCC,RCAF,North
2021-08-29T22:59:57Z,1630277997,2021,23,0,241.9583,241.9583,62.152,-167.2634,1017.2,11.5,-999.0,yes,yes,no,300234068761770,SVP-B,ECCC,RCAF,North
2021-08-30T01:00:02Z,1630285203,2021,1,0,242.0417,242.0417,62.6714,-167.2154,1016.4,10.6,-999.0,yes,yes,no,300234068761770,SVP-B,ECCC,RCAF,North
2021-08-30T01:59:57Z,1630288797,2021,2,0,242.0833,242.0833,62.9342,-167.3418,1015.7,10.3,-999.0,yes,yes,no,300234068761770,SVP-B,ECCC,RCAF,North
2021-08-30T03:00:00Z,1630292400,2021,3,0,242.125,242.125,63.1904,-167.466,1015.2,9.7,-999.0,yes,yes,no,300234068761770,SVP-B,ECCC,RCAF,North
2021-08-30T04:59:57Z,1630299597,2021,5,0,242.2083,242.2083,63.7026,-167.7174,1014.2,8.8,-999.0,yes,yes,no,300234068761770,SVP-B,ECCC,RCAF,North
2021-08-30T06:00:00Z,1630303200,2021,6,0,242.25,242.25,63.9586,-167.845,1013.9,8.6,-999.0,yes,yes,no,300234068761770,SVP-B,ECCC,RCAF,North
2021-08-30T07:00:02Z,1630306803,2021,7,0,242.2917,242.2917,64.2024,-167.9674,1013.6,8.3,-999.0,yes,yes,no,300234068761770,SVP-B,ECCC,RCAF,North
2021-08-30T09:00:00Z,1630314000,2021,9,0,242.375,242.375,64.7334,-168.238,1012.9,8.3,-999.0,yes,yes,no,300234068761770,SVP-B,ECCC,RCAF,North
2021-08-30T10:00:02Z,1630317603,2021,10,0,242.4167,242.4167,64.9966,-168.374,1012.9,8.0,-999.0,yes,yes,no,300234068761770,SVP-B,ECCC,RCAF,North
2021-08-30T10:59:57Z,1630321197,2021,11,0,242.4583,242.4583,65.27,-168.378,1012.9,6.9,-999.0,yes,yes,no,300234068761770,SVP-B,ECCC,RCAF,North
2021-08-30T12:00:00Z,1630324800,2021,12,0,242.5,242.5,65.549,-168.375,1012.8,6.8,-999.0,yes,yes,no,300234068761770,SVP-B,ECCC,RCAF,North
2021-08-30T13:00:02Z,1630328403,2021,13,0,242.5417,242.5417,65.8514,-168.372,1012.9,8.1,-999.0,yes,yes,no,300234068761770,SVP-B,ECCC,RCAF,North
2021-08-30T15:00:00Z,1630335600,2021,15,0,242.625,242.625,66.3806,-168.3662,1012.9,6.8,-999.0,yes,yes,no,300234068761770,SVP-B,ECCC,RCAF,North
2021-08-30T16:00:02Z,1630339203,2021,16,0,242.6667,242.6667,66.644,-168.362,1013.2,6.4,-999.0,yes,yes,no,300234068761770,SVP-B,ECCC,RCAF,North
2021-08-30T16:59:57Z,1630342797,2021,17,0,242.7083,242.7083,66.899,-168.356,1013.5,6.2,-999.0,yes,yes,no,300234068761770,SVP-B,ECCC,RCAF,North
2021-08-30T18:00:00Z,1630346400,2021,18,0,242.75,242.75,67.141,-168.3516,1013.4,6.4,-999.0,yes,yes,no,300234068761770,SVP-B,ECCC,RCAF,North
2021-08-30T19:00:02Z,1630350003,2021,19,0,242.7917,242.7917,67.3862,-168.3478,1013.5,6.8,-999.0,yes,yes,no,300234068761770,SVP-B,ECCC,RCAF,North
2021-08-30T19:59:57Z,1630353597,2021,20,0,242.8333,242.8333,67.6452,-168.3412,1013.5,6.8,-999.0,yes,yes,no,300234068761770,SVP-B,ECCC,RCAF,North
2021-08-30T22:00:02Z,1630360803,2021,22,0,242.9167,242.9167,68.1546,-168.3318,1013.9,7.2,-999.0,yes,yes,no,300234068761770,SVP-B,ECCC,RCAF,North
2021-08-31T00:00:00Z,1630368000,2021,0,0,243.0,243.0,68.626,-168.3206,1014.0,6.4,-999.0,yes,yes,no,300234068761770,SVP-B,ECCC,RCAF,North
2021-08-31T01:00:02Z,1630371603,2021,1,0,243.0417,243.0417,68.8932,-168.3148,1014.0,6.7,-999.0,yes,yes,no,300234068761770,SVP-B,ECCC,RCAF,North
2021-08-31T01:59:57Z,1630375197,2021,2,0,243.0833,243.0833,69.1566,-168.309,1013.8,6.2,-999.0,yes,yes,no,300234068761770,SVP-B,ECCC,RCAF,North
2021-08-31T03:00:00Z,1630378800,2021,3,0,243.125,243.125,69.4224,-168.303,1013.6,5.8,-999.0,yes,yes,no,300234068761770,SVP-B,ECCC,RCAF,North
2021-08-31T04:00:02Z,1630382403,2021,4,0,243.1667,243.1667,69.6408,-167.9576,1013.7,5.5,-999.0,yes,yes,no,300234068761770,SVP-B,ECCC,RCAF,North
2021-08-31T06:00:00Z,1630389600,2021,6,0,243.25,243.25,70.0266,-166.9204,1013.9,4.6,-999.0,yes,yes,no,300234068761770,SVP-B,ECCC,RCAF,North
2021-08-31T07:00:02Z,1630393203,2021,7,0,243.2917,243.2917,70.2222,-166.3878,1014.3,4.4,-999.0,yes,yes,no,300234068761770,SVP-B,ECCC,RCAF,North
2021-08-31T07:59:57Z,1630396797,2021,8,0,243.3333,243.3333,70.4148,-165.859,1014.3,4.0,-999.0,yes,yes,no,300234068761770,SVP-B,ECCC,RCAF,North
2021-08-31T09:00:00Z,1630400400,2021,9,0,243.375,243.375,70.608,-165.3228,1014.5,3.8,-999.0,yes,yes,no,300234068761770,SVP-B,ECCC,RCAF,North
2021-08-31T10:00:02Z,1630404003,2021,10,0,243.4167,243.4167,70.7978,-164.7904,1014.7,3.1,-999.0,yes,yes,no,300234068761770,SVP-B,ECCC,RCAF,North
2021-08-31T10:59:57Z,1630407597,2021,11,0,243.4583,243.4583,70.9866,-164.2566,1014.6,2.1,-999.0,yes,yes,no,300234068761770,SVP-B,ECCC,RCAF,North
2021-08-31T13:00:02Z,1630414803,2021,13,0,243.5417,243.5417,71.2694,-162.9204,1015.2,1.5,-999.0,yes,yes,no,300234068761770,SVP-B,ECCC,RCAF,North
2021-08-31T13:59:57Z,1630418397,2021,14,0,243.5833,243.5833,71.361,-162.3244,1015.2,1.0,-999.0,yes,yes,no,300234068761770,SVP-B,ECCC,RCAF,North
2021-08-31T15:00:00Z,1630422000,2021,15,0,243.625,243.625,71.4876,-161.6216,1015.2,0.9,-999.0,yes,yes,no,300234068761770,SVP-B,ECCC,RCAF,North
2021-08-31T16:00:02Z,1630425603,2021,16,0,243.6667,243.6667,71.5778,-161.0694,1015.4,0.5,-999.0,yes,yes,no,300234068761770,SVP-B,ECCC,RCAF,North
2021-08-31T16:59:57Z,1630429197,2021,17,0,243.7083,243.7083,71.6166,-160.8088,1015.4,0.4,-999.0,yes,yes,no,300234068761770,SVP-B,ECCC,RCAF,North
2021-08-31T18:00:00Z,1630432800,2021,18,0,243.75,243.75,71.6798,-160.4662,1015.3,0.6,-999.0,yes,yes,no,300234068761770,SVP-B,ECCC,RCAF,North
2021-08-31T19:00:02Z,1630436403,2021,19,0,243.7917,243.7917,71.7478,-160.0774,1015.5,0.8,-999.0,yes,yes,no,300234068761770,SVP-B,ECCC,RCAF,North
2021-08-31T19:59:57Z,1630439997,2021,20,0,243.8333,243.8333,71.8134,-159.375,1015.3,1.3,-999.0,yes,yes,no,300234068761770,SVP-B,ECCC,RCAF,North
2021-08-31T21:00:00Z,1630443600,2021,21,0,243.875,243.875,71.9222,-158.9964,1015.7,1.5,-999.0,yes,yes,no,300234068761770,SVP-B,ECCC,RCAF,North
2021-08-31T22:00:02Z,1630447203,2021,22,0,243.9167,243.9167,72.0544,-158.3602,1015.8,2.1,-999.0,yes,yes,no,300234068761770,SVP-B,ECCC,RCAF,North
2021-08-31T22:59:57Z,1630450797,2021,23,0,243.9583,243.9583,72.1572,-157.6268,1015.9,2.5,-999.0,yes,yes,no,300234068761770,SVP-B,ECCC,RCAF,North
2021-09-01T00:00:00Z,1630454400,2021,0,0,244.0,244.0,72.2852,-156.855,1016.1,2.0,-999.0,yes,yes,no,300234068761770,SVP-B,ECCC,RCAF,North
2021-09-01T01:00:02Z,1630458003,2021,1,0,244.0417,244.0417,72.3844,-156.155,1016.3,1.6,-999.0,yes,yes,no,300234068761770,SVP-B,ECCC,RCAF,North
2021-09-01T01:59:57Z,1630461597,2021,2,0,244.0833,244.0833,72.268,-155.4296,1016.4,1.2,-999.0,yes,yes,no,300234068761770,SVP-B,ECCC,RCAF,North
2021-09-01T03:00:00Z,1630465200,2021,3,0,244.125,244.125,72.1176,-154.7552,1016.0,0.8,-999.0,yes,yes,no,300234068761770,SVP-B,ECCC,RCAF,North
2021-09-01T04:00:02Z,1630468803,2021,4,0,244.1667,244.1667,71.9648,-153.9738,1015.9,1.6,-999.0,yes,yes,no,300234068761770,SVP-B,ECCC,RCAF,North
2021-09-01T04:59:57Z,1630472397,2021,5,0,244.2083,244.2083,71.8332,-153.2154,1015.8,2.6,-999.0,yes,yes,no,300234068761770,SVP-B,ECCC,RCAF,North
2021-09-01T06:00:00Z,1630476000,2021,6,0,244.25,244.25,71.664,-152.437,1015.8,2.3,-999.0,yes,yes,no,300234068761770,SVP-B,ECCC,RCAF,North
2021-09-01T07:00:02Z,1630479603,2021,7,0,244.2917,244.2917,71.556,-152.0026,1016.0,2.0,-999.0,yes,yes,no,300234068761770,SVP-B,ECCC,RCAF,North
2021-09-01T07:59:57Z,1630483197,2021,8,0,244.3333,244.3333,71.4612,-151.2856,1015.8,2.2,-999.0,yes,yes,no,300234068761770,SVP-B,ECCC,RCAF,North
2021-09-01T09:00:00Z,1630486800,2021,9,0,244.375,244.375,71.4322,-150.5664,1016.0,1.9,-999.0,yes,yes,no,300234068761770,SVP-B,ECCC,RCAF,North
2021-09-01T10:00:02Z,1630490403,2021,10,0,244.4167,244.4167,71.4678,-149.7068,1016.1,2.0,-999.0,yes,yes,no,300234068761770,SVP-B,ECCC,RCAF,North
2021-09-01T10:59:57Z,1630493997,2021,11,0,244.4583,244.4583,71.494,-148.986,1016.0,2.0,-999.0,yes,yes,no,300234068761770,SVP-B,ECCC,RCAF,North
2021-09-01T12:00:00Z,1630497600,2021,12,0,244.5,244.5,71.5122,-148.1296,1015.9,2.4,-999.0,yes,yes,no,300234068761770,SVP-B,ECCC,RCAF,North
2021-09-01T13:00:02Z,1630501203,2021,13,0,244.5417,244.5417,71.4804,-147.2802,1015.9,2.6,-999.0,yes,yes,no,300234068761770,SVP-B,ECCC,RCAF,North
2021-09-01T13:59:57Z,1630504797,2021,14,0,244.5833,244.5833,71.4458,-146.436,1015.8,2.0,-999.0,yes,yes,no,300234068761770,SVP-B,ECCC,RCAF,North
2021-09-01T15:00:00Z,1630508400,2021,15,0,244.625,244.625,71.366,-145.6344,1015.8,1.6,-999.0,yes,yes,no,300234068761770,SVP-B,ECCC,RCAF,North
2021-09-01T16:00:02Z,1630512003,2021,16,0,244.6667,244.6667,71.253,-144.8744,1015.3,2.3,-999.0,yes,yes,no,300234068761770,SVP-B,ECCC,RCAF,North
2021-09-01T16:59:57Z,1630515597,2021,17,0,244.7083,244.7083,71.1424,-144.1722,1015.1,3.4,-999.0,yes,yes,no,300234068761770,SVP-B,ECCC,RCAF,North
2021-09-01T18:00:00Z,1630519200,2021,18,0,244.75,244.75,71.0622,-143.5856,1015.0,3.5,-999.0,yes,yes,no,300234068761770,SVP-B,ECCC,RCAF,North
2021-09-01T19:00:02Z,1630522803,2021,19,0,244.7917,244.7917,70.9842,-143.0764,1015.2,3.6,-999.0,yes,yes,no,300234068761770,SVP-B,ECCC,RCAF,North
2021-09-01T19:59:57Z,1630526397,2021,20,0,244.8333,244.8333,70.8624,-142.467,1015.1,3.9,-999.0,yes,yes,no,300234068761770,SVP-B,ECCC,RCAF,North
2021-09-01T21:00:00Z,1630530000,2021,21,0,244.875,244.875,70.807,-141.6826,1015.0,3.5,-999.0,yes,yes,no,300234068761770,SVP-B,ECCC,RCAF,North
2021-09-01T22:00:02Z,1630533603,2021,22,0,244.9167,244.9167,70.7948,-141.1498,1014.9,3.1,-999.0,yes,yes,no,300234068761770,SVP-B,ECCC,RCAF,North
2021-09-01T22:59:57Z,1630537197,2021,23,0,244.9583,244.9583,70.8172,-140.5718,1015.0,2.9,-999.0,yes,yes,no,300234068761770,SVP-B,ECCC,RCAF,North
2021-09-02T00:00:00Z,1630540800,2021,0,0,245.0,245.0,70.8652,-139.9342,1015.2,2.7,-999.0,yes,yes,no,300234068761770,SVP-B,ECCC,RCAF,North
2021-09-02T01:00:02Z,1630544403,2021,1,0,245.0417,245.0417,70.9158,-139.3672,1015.3,1.5,-999.0,yes,yes,no,300234068761770,SVP-B,ECCC,RCAF,North
2021-09-02T01:59:57Z,1630547997,2021,2,0,245.0833,245.0833,70.9474,-138.986,1015.3,1.4,-999.0,yes,yes,no,300234068761770,SVP-B,ECCC,RCAF,North
2021-09-02T03:00:00Z,1630551600,2021,3,0,245.125,245.125,70.9834,-138.5764,1015.2,1.5,-999.0,yes,yes,no,300234068761770,SVP-B,ECCC,RCAF,North
2021-09-02T04:00:02Z,1630555203,2021,4,0,245.1667,245.1667,71.0182,-138.1662,1015.1,1.2,-999.0,yes,yes,no,300234068761770,SVP-B,ECCC,RCAF,North
2021-09-02T04:59:57Z,1630558797,2021,5,0,245.2083,245.2083,71.0546,-137.7392,1015.1,0.9,-999.0,yes,yes,no,300234068761770,SVP-B,ECCC,RCAF,North
2021-09-02T06:00:00Z,1630562400,2021,6,0,245.25,245.25,71.0854,-137.368,1015.0,0.5,-999.0,yes,yes,no,300234068761770,SVP-B,ECCC,RCAF,North
2021-09-02T07:00:02Z,1630566003,2021,7,0,245.2917,245.2917,71.1206,-136.9388,1015.0,0.2,-999.0,yes,yes,no,300234068761770,SVP-B,ECCC,RCAF,North
2021-09-02T07:59:57Z,1630569597,2021,8,0,245.3333,245.3333,71.157,-136.478,1015.0,0.2,-999.0,yes,yes,no,300234068761770,SVP-B,ECCC,RCAF,North
2021-09-02T09:00:00Z,1630573200,2021,9,0,245.375,245.375,71.186,-136.0144,1015.0,0.0,-999.0,yes,yes,no,300234068761770,SVP-B,ECCC,RCAF,North
2021-09-02T10:00:02Z,1630576803,2021,10,0,245.4167,245.4167,71.2192,-135.462,1014.9,-0.2,-999.0,yes,yes,no,300234068761770,SVP-B,ECCC,RCAF,North
2021-09-02T10:59:57Z,1630580397,2021,11,0,245.4583,245.4583,71.2518,-134.9906,1015.1,0.0,-999.0,yes,yes,no,300234068761770,SVP-B,ECCC,RCAF,North
2021-09-02T12:00:00Z,1630584000,2021,12,0,245.5,245.5,71.2674,-134.609,1014.9,-0.1,-999.0,yes,yes,no,300234068761770,SVP-B,ECCC,RCAF,North
2021-09-02T13:00:02Z,1630587603,2021,13,0,245.5417,245.5417,71.304,-134.1628,1015.1,-0.1,-999.0,yes,yes,no,300234068761770,SVP-B,ECCC,RCAF,North
2021-09-02T13:59:57Z,1630591197,2021,14,0,245.5833,245.5833,71.3264,-133.6664,1015.0,0.0,-999.0,yes,yes,no,300234068761770,SVP-B,ECCC,RCAF,North
2021-09-02T15:00:00Z,1630594800,2021,15,0,245.625,245.625,71.3552,-133.1454,1014.6,0.2,-999.0,yes,yes,no,300234068761770,SVP-B,ECCC,RCAF,North
2021-09-02T16:00:02Z,1630598403,2021,16,0,245.6667,245.6667,71.3766,-132.5924,1014.6,0.5,-999.0,yes,yes,no,300234068761770,SVP-B,ECCC,RCAF,North
2021-09-02T16:59:57Z,1630601997,2021,17,0,245.7083,245.7083,71.4186,-132.0838,1014.8,0.7,-999.0,yes,yes,no,300234068761770,SVP-B,ECCC,RCAF,North
2021-09-02T18:00:00Z,1630605600,2021,18,0,245.75,245.75,71.446,-131.603,1014.9,0.7,-999.0,yes,yes,no,300234068761770,SVP-B,ECCC,RCAF,North
2021-09-02T19:00:02Z,1630609203,2021,19,0,245.7917,245.7917,71.4728,-131.0624,1015.2,0.9,-999.0,yes,yes,no,300234068761770,SVP-B,ECCC,RCAF,North
2021-09-02T19:59:57Z,1630612797,2021,20,0,245.8333,245.8333,71.4772,-130.5322,1015.7,1.0,-999.0,yes,yes,no,300234068761770,SVP-B,ECCC,RCAF,North
2021-09-02T21:00:00Z,1630616400,2021,21,0,245.875,245.875,71.4676,-130.0204,1016.2,1.3,-999.0,yes,yes,no,300234068761770,SVP-B,ECCC,RCAF,North
2021-09-02T22:00:02Z,1630620003,2021,22,0,245.9167,245.9167,71.4428,-129.5022,1016.3,1.7,-999.0,yes,yes,no,300234068761770,SVP-B,ECCC,RCAF,North
2021-09-02T22:59:57Z,1630623597,2021,23,0,245.9583,245.9583,71.4232,-128.9296,1016.5,2.1,-999.0,yes,yes,no,300234068761770,SVP-B,ECCC,RCAF,North
2021-09-03T00:00:00Z,1630627200,2021,0,0,246.0,246.0,71.4078,-128.4376,1017.0,1.9,-999.0,yes,yes,no,300234068761770,SVP-B,ECCC,RCAF,North
2021-09-03T01:00:02Z,1630630803,2021,1,0,246.0417,246.0417,71.3968,-127.8058,1017.2,1.3,-999.0,yes,yes,no,300234068761770,SVP-B,ECCC,RCAF,North
2021-09-03T01:59:57Z,1630634397,2021,2,0,246.0833,246.0833,71.293,-127.2658,1017.0,1.0,-999.0,yes,yes,no,300234068761770,SVP-B,ECCC,RCAF,North
2021-09-03T03:00:00Z,1630638000,2021,3,0,246.125,246.125,71.2002,-126.8224,1017.0,1.0,-999.0,yes,yes,no,300234068761770,SVP-B,ECCC,RCAF,North
2021-09-03T04:00:02Z,1630641603,2021,4,0,246.1667,246.1667,71.1722,-126.7206,1017.2,0.9,-999.0,yes,yes,no,300234068761770,SVP-B,ECCC,RCAF,North
2021-09-03T04:59:57Z,1630645197,2021,5,0,246.2083,246.2083,71.1462,-126.23,1017.0,1.6,-999.0,yes,yes,no,300234068761770,SVP-B,ECCC,RCAF,North
2021-09-03T06:00:00Z,1630648800,2021,6,0,246.25,246.25,71.0984,-125.3878,1016.8,3.0,-999.0,yes,yes,no,300234068761770,SVP-B,ECCC,RCAF,North
2021-09-03T07:00:02Z,1630652403,2021,7,0,246.2917,246.2917,71.0494,-124.5214,1016.6,3.7,-999.0,yes,yes,no,300234068761770,SVP-B,ECCC,RCAF,North
2021-09-03T07:59:57Z,1630655997,2021,8,0,246.3333,246.3333,71.0078,-123.7894,1016.8,5.3,-999.0,yes,yes,no,300234068761770,SVP-B,ECCC,RCAF,North
2021-09-03T09:00:00Z,1630659600,2021,9,0,246.375,246.375,70.9856,-123.0102,1016.9,3.2,-999.0,yes,yes,no,300234068761770,SVP-B,ECCC,RCAF,North
2021-09-03T10:00:02Z,1630663203,2021,10,0,246.4167,246.4167,71.0452,-122.282,1017.9,2.2,-999.0,yes,yes,no,300234068761770,SVP-B,ECCC,RCAF,North
2021-09-03T10:59:57Z,1630666797,2021,11,0,246.4583,246.4583,71.0944,-121.6744,1017.8,3.3,-999.0,yes,yes,no,300234068761770,SVP-B,ECCC,RCAF,North
2021-09-03T12:00:00Z,1630670400,2021,12,0,246.5,246.5,71.1574,-120.9044,1018.0,3.3,-999.0,yes,yes,no,300234068761770,SVP-B,ECCC,RCAF,North
2021-09-03T13:00:02Z,1630674003,2021,13,0,246.5417,246.5417,71.3246,-120.3704,1018.1,3.5,-999.0,yes,yes,no,300234068761770,SVP-B,ECCC,RCAF,North
2021-09-03T13:59:57Z,1630677597,2021,14,0,246.5833,246.5833,71.5772,-120.0776,1018.8,3.0,-999.0,yes,yes,no,300234068761770,SVP-B,ECCC,RCAF,North
2021-09-03T15:00:00Z,1630681200,2021,15,0,246.625,246.625,71.8346,-119.73,1019.1,2.7,-999.0,yes,yes,no,300234068761770,SVP-B,ECCC,RCAF,North
2021-09-03T16:00:02Z,1630684803,2021,16,0,246.6667,246.6667,72.089,-119.3814,1019.2,2.4,-999.0,yes,yes,no,300234068761770,SVP-B,ECCC,RCAF,North
2021-09-03T16:59:57Z,1630688397,2021,17,0,246.7083,246.7083,72.3332,-119.0624,1019.6,1.8,-999.0,yes,yes,no,300234068761770,SVP-B,ECCC,RCAF,North
2021-09-03T18:00:00Z,1630692000,2021,18,0,246.75,246.75,72.5866,-118.6142,1019.9,2.3,-999.0,yes,yes,no,300234068761770,SVP-B,ECCC,RCAF,North
2021-09-03T19:00:02Z,1630695603,2021,19,0,246.7917,246.7917,72.7734,-117.8912,1019.9,2.5,-999.0,yes,yes,no,300234068761770,SVP-B,ECCC,RCAF,North
2021-09-03T19:59:57Z,1630699197,2021,20,0,246.8333,246.8333,72.983,-117.29,1019.9,1.8,-999.0,yes,yes,no,300234068761770,SVP-B,ECCC,RCAF,North
2021-09-03T21:00:00Z,1630702800,2021,21,0,246.875,246.875,73.1334,-116.4882,1019.7,1.8,-999.0,yes,yes,no,300234068761770,SVP-B,ECCC,RCAF,North
2021-09-03T22:00:02Z,1630706403,2021,22,0,246.9167,246.9167,73.2702,-115.6526,1019.6,2.3,-999.0,yes,yes,no,300234068761770,SVP-B,ECCC,RCAF,North
2021-09-03T22:59:57Z,1630709997,2021,23,0,246.9583,246.9583,73.402,-114.8724,1019.6,2.3,-999.0,yes,yes,no,300234068761770,SVP-B,ECCC,RCAF,North
2021-09-04T00:00:00Z,1630713600,2021,0,0,247.0,247.0,73.4356,-113.9814,1019.3,3.2,-999.0,yes,yes,no,300234068761770,SVP-B,ECCC,RCAF,North
2021-09-04T01:00:02Z,1630717203,2021,1,0,247.0417,247.0417,73.3896,-113.2666,1019.4,0.7,-999.0,yes,yes,no,300234068761770,SVP-B,ECCC,RCAF,North
2021-09-04T01:59:57Z,1630720797,2021,2,0,247.0833,247.0833,73.4098,-112.8922,1019.1,-0.9,-999.0,yes,yes,no,300234068761770,SVP-B,ECCC,RCAF,North
2021-09-04T03:00:00Z,1630724400,2021,3,0,247.125,247.125,73.4468,-112.373,1018.9,-1.8,-999.0,yes,yes,no,300234068761770,SVP-B,ECCC,RCAF,North
2021-09-04T04:00:02Z,1630728003,2021,4,0,247.1667,247.1667,73.5156,-111.6524,1019.0,-2.1,-999.0,yes,yes,no,300234068761770,SVP-B,ECCC,RCAF,North
2021-09-04T04:59:57Z,1630731597,2021,5,0,247.2083,247.2083,73.606,-110.945,1018.6,-2.0,-999.0,yes,yes,no,300234068761770,SVP-B,ECCC,RCAF,North
2021-09-04T06:00:00Z,1630735200,2021,6,0,247.25,247.25,73.7308,-110.268,1018.6,-1.6,-999.0,yes,yes,no,300234068761770,SVP-B,ECCC,RCAF,North
2021-09-04T07:00:02Z,1630738803,2021,7,0,247.2917,247.2917,73.8718,-109.628,1018.4,-1.1,-999.0,yes,yes,no,300234068761770,SVP-B,ECCC,RCAF,North
2021-09-04T07:59:57Z,1630742397,2021,8,0,247.3333,247.3333,73.9804,-109.0808,1018.6,-0.6,-999.0,yes,yes,no,300234068761770,SVP-B,ECCC,RCAF,North
2021-09-04T09:00:00Z,1630746000,2021,9,0,247.375,247.375,74.163,-108.9882,1018.5,-1.1,-999.0,yes,yes,no,300234068761770,SVP-B,ECCC,RCAF,North
2021-09-04T10:00:02Z,1630749603,2021,10,0,247.4167,247.4167,74.3232,-109.0242,1018.5,-1.5,-999.0,yes,yes,no,300234068761770,SVP-B,ECCC,RCAF,North
2021-09-04T10:59:57Z,1630753197,2021,11,0,247.4583,247.4583,74.4796,-108.537,1018.9,-2.0,-999.0,yes,yes,no,300234068761770,SVP-B,ECCC,RCAF,North
2021-09-04T12:00:00Z,1630756800,2021,12,0,247.5,247.5,74.5326,-107.6784,1019.0,-2.5,-999.0,yes,yes,no,300234068761770,SVP-B,ECCC,RCAF,North
2021-09-04T13:00:02Z,1630760403,2021,13,0,247.5417,247.5417,74.5776,-106.8012,1019.0,-2.5,-999.0,yes,yes,no,300234068761770,SVP-B,ECCC,RCAF,North
2021-09-04T13:59:57Z,1630763997,2021,14,0,247.5833,247.5833,74.7288,-106.202,1019.1,-2.5,-999.0,yes,yes,no,300234068761770,SVP-B,ECCC,RCAF,North
2021-09-04T15:00:00Z,1630767600,2021,15,0,247.625,247.625,74.8602,-105.4682,1019.2,-2.7,-999.0,yes,yes,no,300234068761770,SVP-B,ECCC,RCAF,North
2021-09-04T16:00:02Z,1630771203,2021,16,0,247.6667,247.6667,74.9124,-104.7738,1019.1,-2.4,-999.0,yes,yes,no,300234068761770,SVP-B,ECCC,RCAF,North
2021-09-04T16:59:57Z,1630774797,2021,17,0,247.7083,247.7083,74.9026,-103.99,1018.8,-2.3,-999.0,yes,yes,no,300234068761770,SVP-B,ECCC,RCAF,North
2021-09-04T18:00:00Z,1630778400,2021,18,0,247.75,247.75,74.9822,-103.2512,1018.8,-2.2,-999.0,yes,yes,no,300234068761770,SVP-B,ECCC,RCAF,North
2021-09-04T19:00:02Z,1630782003,2021,19,0,247.7917,247.7917,74.947,-102.3824,1018.7,-2.0,-999.0,yes,yes,no,300234068761770,SVP-B,ECCC,RCAF,North
2021-09-04T19:59:57Z,1630785597,2021,20,0,247.8333,247.8333,74.8576,-101.4696,1018.6,-2.1,-999.0,yes,yes,no,300234068761770,SVP-B,ECCC,RCAF,North
2021-09-04T21:00:00Z,1630789200,2021,21,0,247.875,247.875,74.7514,-100.583,1018.5,-2.0,-999.0,yes,yes,no,300234068761770,SVP-B,ECCC,RCAF,North
2021-09-04T22:00:02Z,1630792803,2021,22,0,247.9167,247.9167,74.653,-99.7098,1018.3,-2.0,-999.0,yes,yes,no,300234068761770,SVP-B,ECCC,RCAF,North
2021-09-04T22:59:57Z,1630796397,2021,23,0,247.9583,247.9583,74.538,-98.9802,1018.1,-1.9,-999.0,yes,yes,no,300234068761770,SVP-B,ECCC,RCAF,North
2021-09-05T00:00:00Z,1630800000,2021,0,0,248.0,248.0,74.4632,-98.3648,1018.2,-2.2,-999.0,yes,yes,no,300234068761770,SVP-B,ECCC,RCAF,North
2021-09-05T01:00:02Z,1630803603,2021,1,0,248.0417,248.0417,74.3912,-97.9666,1018.2,-2.5,-999.0,yes,yes,no,300234068761770,SVP-B,ECCC,RCAF,North
2021-09-05T01:59:57Z,1630807197,2021,2,0,248.0833,248.0833,74.3554,-97.56,1017.9,-2.4,-999.0,yes,yes,no,300234068761770,SVP-B,ECCC,RCAF,North
2021-09-05T03:00:00Z,1630810800,2021,3,0,248.125,248.125,74.2992,-96.82,1017.6,-2.5,-999.0,yes,yes,no,300234068761770,SVP-B,ECCC,RCAF,North
2021-09-05T04:00:02Z,1630814403,2021,4,0,248.1667,248.1667,74.3172,-96.127,1017.0,-2.0,-999.0,yes,yes,no,300234068761770,SVP-B,ECCC,RCAF,North